Location: Arcones
(41.1182°N, 3.7238°W)
Time: 19:37:16
(UTC+00:00)

Cosmos 2058 Rocket - Pass Details

Date: 20 March 2026
Orbit: 604 x 632 km, 82.5° (Epoch: 21 April)

Event Time Altitude Azimuth Distance (km) Brightness Sun altitude
Rises 05:05:16 0° 157° (SSE) 2,892 6.6 -14.5°
Reaches altitude 10° 05:07:45 10° 145° (SE) 1,996 6.0 -14.1°
Maximum altitude 05:11:25 26° 89° (E) 1,239 5.5 -13.4°
Drops below altitude 10° 05:15:08 10° 33° (NNE) 2,019 6.3 -12.7°
Sets 05:17:39 0° 21° (NNE) 2,934 7.0 -12.2°
